Location: Newark
(34.6283°N, 36.0776°E)
Time: 20:59:09
(UTC+00:00)

Tiros 1 - Pass Details

Date: 19 October 2019
Orbit: 630 x 664 km, 48.4° (Epoch: 18 November)

Event Time Altitude Azimuth Distance (km) Brightness Sun altitude
Exits shadow 03:03:54 - 315° (NW) 2,529 9.7 -9.0°
Reaches altitude 10° 03:05:37 10° 328° (NNW) 2,082 9.4 -8.7°
Maximum altitude 03:08:35 16° 7° (N) 1,712 9.3 -8.1°
Drops below altitude 10° 03:11:34 10° 45° (NE) 2,081 10.3 -7.5°
Sets 03:14:46 0° 67° (ENE) 2,990 11.7 -6.8°
